Follow iAlert.com on twitter @ialertcom
Search For Active Alerts in Your Area  
  Hi Guest:  [ Sign-up / Services ] [ Login ]

Current weather by "City, St" or "zip code"  
 

Advertise Here

Current Conditions: Doylestown, Doylestown Airport, PA

Rain


42.0 F

Last Updated on Feb 25 2018, 3:54 am EST
Humidity: 100%
Wind Speed: N 0.0 mph
Barometer 30.06 in
Dewpoint: 42.1 F
Visibility: 7.00 mi
Precip: --
Heat Index: NA
Wind Chill: NA
Current conditions at:

Doylestown, Doylestown Airport, PA (KDYL)

Lat: 40.33 Lon: 75.122

Local Radar Image active severe weather and emergency alerts image image weather storm and storm spotter reports image weather observation monitoring service image
Local
Radar
Active
Alerts
Storm Reports Obs
Monitoring

iAlert Weather and Emergency Alert Notification Services:


ialert severe weather and emergency alerts by text message and email ialert daily weather forecast by email and text message service ialert real-time weather-observation monitoring and alert notification service ialert storm report monitoring alert notification

Observation History for Doylestown, Doylestown Airport, PA


Time Wind
(mph)
Vis
(mi)
Weather Precip (in) Temperature (F) Relative
Humidity
Wind
Chill
(°F)
Heat
Index
(°F)
Pressure
Air Dwpt altimeter
(in)
sea level
(mb)
3:54 am EST N 0.0 7.00 Rain -- 42.0 42.1 100% NA NA 30.06 1018.4
2:54 am EST 4.6 5.00 Rain Fog/Mist 00.12 43.0 43.0 100% 40 NA 30.10 1019.7
1:54 am EST N 0.0 8.00 Light Rain Trace 44.0 43.0 96% NA NA 30.12 1020.4
12:54 am EST 3.5 9.00 Light Rain Trace 44.0 43.0 96% NA NA 30.14 1021.1
11:54 pm EST N 0.0 10.00 Overcast Trace 43.0 42.1 97% NA NA 30.16 1021.5
10:54 pm EST NE 4.6 10.00 Light Rain 00.01 43.0 42.1 97% 40 NA 30.16 1021.8
9:54 pm EST N 0.0 10.00 Overcast -- 44.0 43.0 96% NA NA 30.19 1022.7
8:54 pm EST N 0.0 10.00 Overcast -- 45.0 43.0 93% NA NA 30.17 1022.0
7:54 pm EST NE 3.5 10.00 Overcast -- 45.0 44.1 97% NA NA 30.16 1021.8
6:54 pm EST N 3.5 10.00 Overcast Trace 46.0 44.1 93% NA NA 30.18 1022.4
5:54 pm EST NE 4.6 10.00 Overcast Trace 46.0 45.0 96% 44 NA 30.16 1021.7
4:54 pm EST NE 6.9 10.00 Overcast 00.02 47.0 45.0 93% 44 NA 30.15 1021.3
3:54 pm EST N 5.8 10.00 Light Rain 00.03 47.0 46.0 97% 44 NA 30.15 1021.2
2:54 pm EST N 3.5 10.00 Overcast Trace 48.0 46.0 93% NA NA 30.12 1020.4
1:54 pm EST N 5.8 10.00 Overcast -- 48.0 45.0 89% 45 NA 30.13 1020.7
12:54 pm EST NW 3.5 10.00 Overcast 00.01 48.0 46.0 93% NA NA 30.17 1021.9
11:54 am EST N 3.5 10.00 Light Rain 00.07 48.0 46.0 93% NA NA 30.18 1022.3
10:54 am EST N 0.0 5.00 Rain Fog/Mist 00.03 47.0 45.0 93% NA NA 30.19 1022.6
9:54 am EST 3.5 10.00 Overcast -- 48.0 45.0 89% NA NA 30.16 1021.6
8:54 am EST 3.5 10.00 Overcast -- 44.0 43.0 96% NA NA 30.18 1022.4
7:54 am EST N 0.0 6.00 Fog/Mist -- 43.0 42.1 97% NA NA 30.18 1022.5
6:54 am EST N 3.5 4.00 Fog/Mist -- 42.0 42.1 100% NA NA 30.17 1022.2
5:54 am EST W 3.5 4.00 Fog/Mist -- 42.0 42.1 100% NA NA 30.17 1022.2
4:54 am EST SW 4.6 6.00 Fog/Mist -- 42.0 42.1 100% 39 NA 30.16 1021.9

Regional Weather Observation


Allentown, Lehigh Valley International Airport, PA (KABE)

Light Rain Fog/Mist
43.0 F

Allentown Queen City Municipal Airport, PA (KXLL)

Heavy Rain
43.0 F

Doylestown, Doylestown Airport, PA (KDYL)

Rain
42.0 F

Pottstown, Pottstown Limerick Airport, PA (KPTW)

Rain Fog/Mist
43.0 F

Philadelphia, Northeast Philadelphia Airport, PA (KPNE)

Rain Fog/Mist
46.0 F

Reading, Reading Regional Airport, PA (KRDG)

Rain Fog/Mist
45.0 F

Advertise Here